ジョンソン彗星

48P/Johnson (2018)

English version
Home page
Updated on August 17, 2018

---------------------------------------------------------------------

・ プロフィール

・ 写真集

・ 軌道要素

Epoch 2018 Aug. 30.0 TT = JDT 2458360.5
T 2018 Aug. 12.19874 TT                                 Kobayashi
q   2.0045304            (2000.0)            P               Q
n   0.15064131     Peri.  216.56133     +0.82311142     +0.53204907
a   3.4981626      Node   110.13338     -0.45794136     +0.82861329
e   0.4269762      Incl.   12.20696     -0.33582331     +0.17413733
P   6.54
From 1232 observations 1949 Aug. 24-2015 Jan. 20, mean residual 0".6.
     Nongravitational parameters A1 = +0.61, A2 = -0.0195.

・ 星図

・ 光度変化

        m1 = 14.5 + 5 logΔ +  5.0 log r  [    ,-225]  (              〜2017年12月30日)
        m1 =  2.0 + 5 logΔ + 35   log r  [-225, 225]  (2017年12月30日〜2019年 3月25日)
        m1 = 14.5 + 5 logΔ +  5.0 log r  [ 225,    ]  (2019年 3月25日〜              )

---------------------------------------------------------------------

軌道要素はM.P.E.C. 2015-M77に掲載されたものです。
星図はステラナビゲータ Ver.8 (アストロアーツ) で作成したものです。
光度グラフはComet for Windowsで作成したものです。

---------------------------------------------------------------------

Copyright(C) Seiichi Yoshida (comet@aerith.net). All rights reserved.